Tracking 19563 objects as of 20-Mar-2019
HD Live streaming from Space Station
objects crossing your sky now

SL-16 DEB

Track SL-16 DEB now!
10-day predictions


NORAD ID: 39879
Int'l Code: 1993-016BD
Perigee: 733.6 km
Apogee: 922.7 km
Inclination: 71.0 °
Period: 101.3 minutes
Semi major axis: 7199 km
RCS: 0.0122 m2 (small)
Launch date: March 26, 1993
Source: Commonwealth of Independent States (former USSR) (CIS)
Launch site: TYURATAM MISSILE AND SPACE COMPLEX (TTMTR)

Note: This is SATELLITE DEBRIS
aabbcc
Your satellite tracking list
Your tracking list is empty




NASA's NSSDC Master Catalog

Two Line Element Set (TLE):
1 39879U 93016BD  19077.74306891  .00001401  00000-0  60910-3 0  9992
2 39879  70.9851 115.5250 0131349 226.1659 249.7559 14.21278506780517
Source of the keplerian elements: AFSPC